Please enable / Bitte aktiviere JavaScript!
Veuillez activer / Por favor activa el Javascript![ ? ]
UMV-RP | Forum

UMV-RP | Forum - Centre de statistiques

Statistiques générales

Total des membres:
3502
Total des messages:
113334
Total des sujets:
14112
Total des catégories:
10
Membres en ligne:
45
Connexions simultanées:
1056 - 15 06 2017, 16:28:45
En ligne aujourd'hui:
91
Total des pages vues:
15505156
Moyenne des inscriptions par jour:
3.25
Moyenne des messages par jour:
79.15
Moyenne des sujets par jour:
12.09
Total des sections:
219
Dernier membre:
ingriddewasmes@gmail.com
Moyenne d'utilisateurs connectés par jour:
51.36
Ratio hommes/femmes:
9.1:1
Pages vues en moyenne par jour:
8740.22

Top lanceurs de sujets

Temps de connexion cumulé

Yoann ☾
79j 17h 1m
Looping
61j 21h 18m
Steven
57j 18h 42m
Memphis
56j 13h 4m
Amine
55j 35m
Nico | McKenzie
54j 12h 39m
John_Meson
50j 16h 17m
Florian_Fartello
49j 14h 42m
Emilio_Maestro
49j 12h 32m
Tнoмаѕ
48j 1h 14m

Historique du forum (basé sur l'heure interne du forum)

Résumé annuel Nouveaux sujets Nouveaux messages Nouveaux membres Connexions simultanées Pages vues
* 2017 5657 42394 1300 1056 5085778
Novembre 2017 277 2889 81 343 335119
Octobre 2017 411 3797 121 101 407328
Septembre 2017 577 4123 84 126 464447
2017-09-01 26 221 3 102 19573
2017-09-02 25 249 3 115 20544
2017-09-03 52 221 3 107 21660
2017-09-04 28 195 2 101 18116
2017-09-05 17 138 5 93 15573
2017-09-06 13 159 1 100 15526
2017-09-07 11 126 1 96 14412
2017-09-08 21 172 3 126 16695
2017-09-09 37 170 7 123 16882
2017-09-10 31 129 1 108 20800
2017-09-11 6 98 1 98 11877
2017-09-12 6 83 1 92 11266
2017-09-13 14 133 1 105 15619
2017-09-14 13 132 3 108 14659
2017-09-15 19 125 0 94 14094
2017-09-16 27 158 6 97 15047
2017-09-17 32 160 2 96 18810
2017-09-18 18 85 2 107 15441
2017-09-19 17 99 4 97 12680
2017-09-20 14 86 2 87 11854
2017-09-21 2 86 3 102 18882
2017-09-22 15 83 0 94 12377
2017-09-23 24 190 8 105 15873
2017-09-24 23 127 4 102 14915
2017-09-25 9 85 2 90 11575
2017-09-26 15 140 1 92 12673
2017-09-27 9 133 3 97 14392
2017-09-28 13 109 6 98 14148
2017-09-29 10 77 4 118 13679
2017-09-30 30 154 2 92 14805
Août 2017 912 6746 169 135 611417
2017-08-01 33 237 3 106 19936
2017-08-02 21 236 14 98 17994
2017-08-03 12 161 1 104 15358
2017-08-04 28 224 8 99 18080
2017-08-05 23 179 4 98 17379
2017-08-06 20 190 3 92 17209
2017-08-07 25 204 7 89 17610
2017-08-08 25 185 4 98 20012
2017-08-09 22 230 5 105 19525
2017-08-10 16 161 5 101 17010
2017-08-11 33 189 5 97 17398
2017-08-12 17 155 2 96 15409
2017-08-13 26 275 5 106 18618
2017-08-14 24 194 7 109 17846
2017-08-15 28 192 8 104 24798
2017-08-16 35 253 2 123 21789
2017-08-17 27 217 8 111 21094
2017-08-18 45 236 4 105 20750
2017-08-19 27 192 5 101 19460
2017-08-20 29 234 5 112 20727
2017-08-21 26 175 6 116 19779
2017-08-22 33 194 5 108 20547
2017-08-23 28 153 3 109 18739
2017-08-24 68 280 2 110 22567
2017-08-25 48 221 5 135 22392
2017-08-26 23 181 8 97 20725
2017-08-27 24 260 6 102 21704
2017-08-28 32 371 10 116 23420
2017-08-29 33 262 7 127 21509
2017-08-30 37 264 5 108 20700
2017-08-31 44 241 7 115 21333
Juillet 2017 953 7008 173 145 620532
2017-07-01 21 300 5 116 23820
2017-07-02 29 168 6 96 18118
2017-07-03 35 219 10 113 19399
2017-07-04 35 168 6 101 18658
2017-07-05 28 159 9 97 16357
2017-07-06 17 113 4 101 16740
2017-07-07 27 180 6 99 21276
2017-07-08 29 149 1 113 19255
2017-07-09 39 202 6 115 21249
2017-07-10 26 239 6 104 19633
2017-07-11 33 232 9 110 21714
2017-07-12 52 289 7 121 23963
2017-07-13 27 215 8 95 18216
2017-07-14 24 159 7 94 18455
2017-07-15 23 183 2 92 17388
2017-07-16 25 177 5 95 17383
2017-07-17 18 200 3 113 18893
2017-07-18 17 166 6 103 17373
2017-07-19 25 220 12 102 19593
2017-07-20 42 228 7 106 19774
2017-07-21 48 243 0 101 18779
2017-07-22 37 218 9 104 20882
2017-07-23 33 200 4 106 19855
2017-07-24 42 321 3 106 20866
2017-07-25 35 298 5 93 20777
2017-07-26 37 269 3 102 19546
2017-07-27 24 198 6 91 19427
2017-07-28 37 342 7 145 20977
2017-07-29 31 348 3 115 24444
2017-07-30 36 316 2 115 24587
2017-07-31 21 289 6 96 23135
Juin 2017 816 5903 209 1056 689104
2017-06-01 9 224 0 100 18069
2017-06-02 15 173 2 100 18393
2017-06-03 30 156 7 108 21182
2017-06-04 43 288 16 109 23410
2017-06-05 26 239 12 109 21109
2017-06-06 20 211 5 104 20125
2017-06-07 19 148 6 135 18437
2017-06-08 43 170 10 119 23069
2017-06-09 28 185 6 115 21510
2017-06-10 42 214 6 97 23209
2017-06-11 64 276 12 90 22107
2017-06-12 39 188 11 115 19537
2017-06-13 27 176 1 132 21035
2017-06-14 25 220 8 114 23284
2017-06-15 20 179 8 1056 106448
2017-06-16 5 97 3 104 17350
2017-06-17 7 80 2 114 18627
2017-06-18 20 163 8 120 23223
2017-06-19 26 247 11 102 18024
2017-06-20 26 238 8 127 21730
2017-06-21 30 268 7 114 23316
2017-06-22 24 169 9 112 16542
2017-06-23 22 185 12 103 21186
2017-06-24 33 193 4 104 20183
2017-06-25 18 150 4 116 15935
2017-06-26 21 235 6 88 17486
2017-06-27 33 202 3 107 18674
2017-06-28 35 182 7 114 18940
2017-06-29 48 295 8 124 20337
2017-06-30 18 152 7 103 16627
Mai 2017 631 4631 174 147 624135
2017-05-01 23 144 4 106 18806
2017-05-02 13 131 6 98 17474
2017-05-03 15 149 7 95 16351
2017-05-04 13 123 1 92 15025
2017-05-05 23 121 0 107 14293
2017-05-06 28 116 4 101 16577
2017-05-07 11 123 1 104 18032
2017-05-08 23 135 12 107 15569
2017-05-09 13 143 3 94 14278
2017-05-10 16 115 1 94 13979
2017-05-11 14 84 0 94 12562
2017-05-12 13 81 9 95 15358
2017-05-13 21 137 13 95 17711
2017-05-14 31 171 10 108 19088
2017-05-15 24 109 4 105 14861
2017-05-16 21 92 5 105 14743
2017-05-17 32 200 2 101 20611
2017-05-18 8 70 2 83 12119
2017-05-19 9 91 3 101 12806
2017-05-20 14 114 7 101 14227
2017-05-21 24 131 10 116 17121
2017-05-22 16 175 12 86 15132
2017-05-23 12 148 5 100 14782
2017-05-24 17 214 12 112 55326
2017-05-25 22 181 6 112 75985
2017-05-26 28 186 11 96 20145
2017-05-27 30 201 8 107 17253
2017-05-28 51 262 7 109 20554
2017-05-29 25 270 1 147 26528
2017-05-30 17 250 3 116 26291
2017-05-31 24 164 5 105 20548
Avril 2017 496 2652 143 109 367074
2017-04-01 9 49 4 88 10129
2017-04-02 14 53 6 98 10918
2017-04-03 28 87 4 78 9514
2017-04-04 21 78 5 93 14011
2017-04-05 21 96 4 79 11950
2017-04-06 6 61 5 87 10491
2017-04-07 1 45 2 79 10268
2017-04-08 10 85 4 85 10135
2017-04-09 20 97 5 89 11924
2017-04-10 15 160 6 92 13494
2017-04-11 15 71 3 80 11636
2017-04-12 11 76 3 77 11030
2017-04-13 12 85 5 70 10503
2017-04-14 13 81 2 86 11036
2017-04-15 22 115 10 93 13049
2017-04-16 37 127 7 90 15030
2017-04-17 14 77 7 86 12836
2017-04-18 20 135 7 95 15049
2017-04-19 11 70 6 79 12079
2017-04-20 12 62 2 94 10181
2017-04-21 8 71 3 89 11324
2017-04-22 11 57 5 78 10690
2017-04-23 32 69 5 92 15632
2017-04-24 20 57 7 79 10448
2017-04-25 12 86 8 86 10725
2017-04-26 23 99 5 109 13418
2017-04-27 14 84 6 94 12272
2017-04-28 15 121 0 89 16052
2017-04-29 20 139 3 100 14438
2017-04-30 29 159 4 101 16812
Mars 2017 191 1292 55 133 331700
2017-03-01 1 17 0 82 9513
2017-03-02 3 23 0 80 8781
2017-03-03 7 37 0 78 8775
2017-03-04 6 40 0 90 10123
2017-03-05 7 28 3 74 8747
2017-03-06 5 31 2 133 7844
2017-03-07 6 34 1 93 13344
2017-03-08 6 33 0 85 10689
2017-03-09 2 23 2 79 10342
2017-03-10 2 20 3 82 9659
2017-03-11 15 60 2 83 11547
2017-03-12 12 63 6 79 10214
2017-03-13 4 36 3 84 11804
2017-03-14 3 28 1 77 9772
2017-03-15 7 41 1 111 10758
2017-03-16 5 33 0 95 9255
2017-03-17 0 26 2 97 10970
2017-03-18 18 40 4 86 11327
2017-03-19 8 59 2 80 9828
2017-03-20 0 28 1 72 9449
2017-03-21 6 46 5 69 10692
2017-03-22 6 35 0 80 11656
2017-03-23 8 45 0 95 11206
2017-03-24 4 37 2 99 13593
2017-03-25 13 67 3 89 14077
2017-03-26 6 64 3 96 15790
2017-03-27 0 12 3 90 12306
2017-03-28 9 72 1 84 9923
2017-03-29 11 109 4 94 10264
2017-03-30 6 74 0 102 10679
2017-03-31 5 31 1 82 8773
Février 2017 170 1424 60 106 301221
2017-02-01 14 58 1 62 7678
2017-02-02 10 80 6 99 14209
2017-02-03 6 65 1 89 11597
2017-02-04 7 61 4 90 12465
2017-02-05 6 46 3 82 16388
2017-02-06 6 45 1 78 14526
2017-02-07 11 58 1 83 10681
2017-02-08 14 67 3 96 13321
2017-02-09 3 33 1 97 11530
2017-02-10 4 109 4 75 10991
2017-02-11 1 18 2 77 8336
2017-02-12 10 57 1 81 8895
2017-02-13 8 64 1 85 9509
2017-02-14 4 39 1 75 9096
2017-02-15 7 31 3 79 8976
2017-02-16 5 32 3 90 9291
2017-02-17 5 20 2 72 7697
2017-02-18 9 58 3 76 9717
2017-02-19 8 83 3 82 9354
2017-02-20 3 43 4 70 9102
2017-02-21 1 38 3 83 10567
2017-02-22 8 128 1 106 14739
2017-02-23 4 60 2 88 11470
2017-02-24 5 35 1 84 10576
2017-02-25 2 23 2 84 11342
2017-02-26 3 29 0 81 9929
2017-02-27 3 28 1 87 9453
2017-02-28 3 16 2 93 9786
Janvier 2017 223 1929 31 91 333701
2017-01-01 5 69 2 66 15873
2017-01-02 4 61 1 71 21664
2017-01-03 6 41 1 74 19579
2017-01-04 5 39 1 73 9994
2017-01-05 4 48 0 39 5491
2017-01-06 4 59 0 72 9978
2017-01-07 10 130 0 79 13668
2017-01-08 9 48 1 60 8852
2017-01-09 6 65 0 66 9280
2017-01-10 5 47 0 65 8976
2017-01-11 2 40 1 60 7960
2017-01-12 6 33 0 71 6824
2017-01-13 3 79 2 62 7770
2017-01-14 17 71 3 87 9823
2017-01-15 6 91 0 76 9375
2017-01-16 8 51 2 91 10605
2017-01-17 4 41 1 88 12081
2017-01-18 5 33 0 79 9016
2017-01-19 9 55 0 87 12135
2017-01-20 2 35 1 67 6879
2017-01-21 14 62 0 91 10565
2017-01-22 12 114 3 80 13559
2017-01-23 6 57 2 84 13282
2017-01-24 5 81 4 78 15656
2017-01-25 7 90 1 72 14883
2017-01-26 11 89 1 67 9897
2017-01-27 1 46 0 62 8151
2017-01-28 9 62 1 53 7499
2017-01-29 9 78 0 76 7801
2017-01-30 20 70 3 82 9157
2017-01-31 9 44 0 78 7428
* 2016 3120 24100 748 101 3761853
Décembre 2016 230 1681 59 89 285680
Novembre 2016 208 1702 37 86 323312
Octobre 2016 273 2295 66 72 305569
2016-10-01 13 104 1 63 10528
2016-10-02 9 103 1 63 9345
2016-10-03 9 90 1 63 7690
2016-10-04 7 72 0 56 9275
2016-10-05 4 67 2 49 7566
2016-10-06 9 87 1 62 7864
2016-10-07 9 49 2 58 7940
2016-10-08 8 60 6 56 6938
2016-10-09 10 91 4 58 19852
2016-10-10 8 98 1 61 17748
2016-10-11 4 68 2 58 12516
2016-10-12 10 88 1 56 8291
2016-10-13 4 71 0 56 8918
2016-10-14 3 58 0 58 9648
2016-10-15 6 73 8 67 10907
2016-10-16 8 111 3 61 9646
2016-10-17 2 22 3 38 6580
2016-10-18 6 45 3 59 6186
2016-10-19 6 47 0 52 7037
2016-10-20 11 65 0 53 7326
2016-10-21 8 73 0 57 8622
2016-10-22 8 80 4 50 10777
2016-10-23 12 51 4 51 9158
2016-10-24 5 42 2 51 10407
2016-10-25 13 54 1 42 7855
2016-10-26 13 61 1 39 6859
2016-10-27 8 43 2 58 8907
2016-10-28 6 62 1 51 10716
2016-10-29 29 138 3 58 12726
2016-10-30 14 146 6 72 15897
2016-10-31 11 76 3 55 11844
Septembre 2016 201 1746 43 93 235829
2016-09-01 8 47 1 55 9696
2016-09-02 3 43 1 52 5821
2016-09-03 10 40 1 47 6719
2016-09-04 13 92 4 64 12633
2016-09-05 8 27 1 70 9410
2016-09-06 19 42 1 93 10169
2016-09-07 14 83 1 74 10764
2016-09-08 15 94 1 61 9620
2016-09-09 10 82 0 62 8181
2016-09-10 7 59 0 63 8045
2016-09-11 3 64 2 50 7183
2016-09-12 5 45 0 62 8820
2016-09-13 4 49 3 52 5325
2016-09-14 2 31 1 84 5886
2016-09-15 4 38 1 50 5536
2016-09-16 0 38 1 55 6131
2016-09-17 1 40 1 39 5018
2016-09-18 6 29 2 71 8166
2016-09-19 3 12 2 40 5974
2016-09-20 9 20 2 50 7654
2016-09-21 2 35 2 38 4929
2016-09-22 7 67 1 59 5951
2016-09-23 3 43 2 70 6260
2016-09-24 3 57 2 69 11349
2016-09-25 8 77 4 61 10767
2016-09-26 8 85 0 52 8069
2016-09-27 10 88 1 57 7376
2016-09-28 6 76 2 50 6737
2016-09-29 5 139 2 50 8117
2016-09-30 5 104 1 55 9523
Août 2016 248 2362 71 86 321612
2016-08-01 8 72 2 53 11776
2016-08-02 10 89 3 53 11482
2016-08-03 14 135 2 73 12888
2016-08-04 2 108 3 80 14262
2016-08-05 2 65 0 61 21319
2016-08-06 7 47 2 61 20384
2016-08-07 6 56 2 56 10819
2016-08-08 6 29 0 52 6585
2016-08-09 46 104 3 76 10227
2016-08-10 1 38 3 44 10201
2016-08-11 5 53 1 51 7708
2016-08-12 5 63 5 60 6864
2016-08-13 3 63 0 51 6941
2016-08-14 0 25 2 61 8040
2016-08-15 6 58 1 50 8773
2016-08-16 4 51 3 84 9164
2016-08-17 4 31 6 50 7217
2016-08-18 5 113 2 55 8196
2016-08-19 2 73 2 47 11524
2016-08-20 7 130 1 58 10319
2016-08-21 5 53 3 61 8457
2016-08-22 13 74 2 50 8873
2016-08-23 9 61 2 50 9080
2016-08-24 6 81 0 50 10067
2016-08-25 14 125 4 86 12684
2016-08-26 17 159 5 65 12541
2016-08-27 9 149 1 64 10323
2016-08-28 12 78 4 62 10193
2016-08-29 10 89 1 61 11188
2016-08-30 5 60 3 55 7039
2016-08-31 5 30 3 45 6478
Juillet 2016 324 2405 86 94 323955
2016-07-01 3 18 1 52 10322
2016-07-02 16 96 5 74 17334
2016-07-03 8 93 12 80 18142
2016-07-04 12 70 3 70 9632
2016-07-05 12 77 2 52 9210
2016-07-06 12 75 6 61 8934
2016-07-07 16 156 4 61 9385
2016-07-08 7 91 1 60 8683
2016-07-09 11 121 0 60 10149
2016-07-10 14 203 3 78 12916
2016-07-11 23 137 5 83 15520
2016-07-12 11 82 6 63 9203
2016-07-13 8 65 3 66 8365
2016-07-14 15 73 2 54 8002
2016-07-15 9 56 4 53 9292
2016-07-16 6 48 3 43 16682
2016-07-17 10 44 0 43 6993
2016-07-18 11 57 3 47 8184
2016-07-19 12 55 0 56 7866
2016-07-20 13 74 2 54 8922
2016-07-21 4 36 2 54 8325
2016-07-22 13 60 3 65 9258
2016-07-23 9 54 0 51 7278
2016-07-24 12 109 1 60 10629
2016-07-25 6 43 4 56 9943
2016-07-26 14 99 5 94 11404
2016-07-27 8 40 3 49 9890
2016-07-28 1 21 2 59 9930
2016-07-29 9 63 0 61 9362
2016-07-30 10 111 1 63 11681
2016-07-31 9 78 0 63 12519
Juin 2016 155 1099 55 69 185803
Mai 2016 127 790 47 61 271263
2016-05-01 8 34 1 43 5960
2016-05-02 5 23 1 42 5262
2016-05-03 0 6 2 45 4838
2016-05-04 8 55 0 55 8502
2016-05-05 1 13 1 36 13380
2016-05-06 7 32 4 44 11974
2016-05-07 6 66 1 42 11213
2016-05-08 6 33 0 61 11183
2016-05-09 1 9 1 52 9641
2016-05-10 4 16 0 45 9252
2016-05-11 2 21 2 61 9208
2016-05-12 1 12 2 43 12200
2016-05-13 3 19 2 42 13366
2016-05-14 5 16 0 40 13793
2016-05-15 1 14 1 34 8985
2016-05-16 2 9 2 43 8970
2016-05-17 6 27 2 39 8573
2016-05-18 2 24 0 41 9546
2016-05-19 3 26 1 37 7915
2016-05-20 5 14 1 49 7775
2016-05-21 8 33 1 53 9227
2016-05-22 7 22 2 53 6992
2016-05-23 1 10 1 41 4528
2016-05-24 1 11 0 37 4866
2016-05-25 2 18 1 39 6315
2016-05-26 2 19 3 50 6963
2016-05-27 1 31 3 48 7193
2016-05-28 5 35 3 50 9100
2016-05-29 10 46 4 57 9683
2016-05-30 2 56 1 53 7131
2016-05-31 12 40 4 51 7729
Avril 2016 127 763 61 65 263201
Mars 2016 261 1536 64 92 313965
Février 2016 425 3005 87 73 404633
2016-02-01 10 81 2 60 12509
2016-02-02 11 80 2 73 12434
2016-02-03 9 85 4 59 13376
2016-02-04 11 105 2 66 12136
2016-02-05 15 86 3 71 9749
2016-02-06 14 91 6 57 11380
2016-02-07 26 134 3 70 15762
2016-02-08 13 111 2 70 13169
2016-02-09 25 81 4 72 12902
2016-02-10 18 117 2 65 14901
2016-02-11 20 76 3 56 10847
2016-02-12 18 116 9 61 13323
2016-02-13 20 95 4 65 13069
2016-02-14 12 78 2 54 10808
2016-02-15 12 88 2 47 9101
2016-02-16 21 123 7 48 11668
2016-02-17 12 133 1 57 12123
2016-02-18 5 78 5 57 7663
2016-02-19 11 92 3 58 8782
2016-02-20 9 146 1 61 11173
2016-02-21 18 202 0 52 12220
2016-02-22 17 139 3 47 15807
2016-02-23 17 148 3 52 19887
2016-02-24 16 112 3 53 10109
2016-02-25 9 94 1 36 12257
2016-02-26 15 103 1 58 33568
2016-02-27 18 78 2 58 28732
2016-02-28 13 72 4 56 16826
2016-02-29 10 61 3 46 18352
Janvier 2016 541 4716 72 101 527031
2016-01-01 24 252 2 74 20401
2016-01-02 43 293 3 67 24119
2016-01-03 28 298 4 71 26803
2016-01-04 8 162 3 80 20919
2016-01-05 6 94 2 54 11919
2016-01-06 14 108 2 59 10415
2016-01-07 10 95 1 51 11006
2016-01-08 19 124 2 59 16218
2016-01-09 23 179 2 68 26994
2016-01-10 22 229 4 76 21994
2016-01-11 15 164 2 73 12853
2016-01-12 11 91 1 61 12711
2016-01-13 10 129 1 54 14895
2016-01-14 6 97 1 59 12903
2016-01-15 18 146 3 82 20004
2016-01-16 27 169 2 89 17823
2016-01-17 24 191 3 77 25915
2016-01-18 11 133 1 75 22595
2016-01-19 9 113 1 64 18698
2016-01-20 18 135 5 65 16851
2016-01-21 15 135 0 76 17507
2016-01-22 16 201 1 96 17441
2016-01-23 12 117 6 101 16006
2016-01-24 16 137 3 70 13006
2016-01-25 30 166 2 65 16441
2016-01-26 16 113 2 57 11233
2016-01-27 12 150 1 61 13254
2016-01-28 15 137 5 65 13188
2016-01-29 12 73 0 68 11728
2016-01-30 32 102 5 69 15083
2016-01-31 19 183 2 89 16108
* 2015 5909 40738 1674 276 3969206
Décembre 2015 679 5930 94 79 487378
2015-12-01 19 136 3 70 12256
2015-12-02 20 160 2 72 11977
2015-12-03 18 157 1 79 13433
2015-12-04 20 144 5 58 12292
2015-12-05 25 152 8 63 12433
2015-12-06 22 160 3 58 13679
2015-12-07 18 150 2 51 11500
2015-12-08 16 127 1 60 19971
2015-12-09 15 147 2 61 20014
2015-12-10 17 198 3 75 16340
2015-12-11 18 188 4 63 15809
2015-12-12 21 167 5 64 15906
2015-12-13 22 187 3 69 14804
2015-12-14 13 185 2 68 11306
2015-12-15 18 167 1 58 15515
2015-12-16 22 194 2 59 14909
2015-12-17 26 207 1 62 14326
2015-12-18 25 265 2 69 17478
2015-12-19 19 239 0 66 17102
2015-12-20 37 265 4 75 18396
2015-12-21 33 219 2 70 21346
2015-12-22 28 265 2 60 16893
2015-12-23 36 217 4 64 16705
2015-12-24 23 207 2 64 14592
2015-12-25 17 150 2 56 12053
2015-12-26 22 176 4 74 13410
2015-12-27 18 172 5 62 16380
2015-12-28 22 215 5 59 19746
2015-12-29 29 213 6 55 18123
2015-12-30 26 278 3 72 21256
2015-12-31 14 223 5 62 17428
Novembre 2015 538 4376 109 93 434933
2015-11-01 9 155 8 68 18250
2015-11-02 32 181 2 54 13705
2015-11-03 25 118 2 83 11501
2015-11-04 17 94 1 54 10149
2015-11-05 9 71 2 55 9035
2015-11-06 11 85 3 77 12436
2015-11-07 16 100 6 66 11842
2015-11-08 34 208 8 72 18757
2015-11-09 21 193 1 54 15669
2015-11-10 13 119 4 56 15444
2015-11-11 18 180 4 57 15241
2015-11-12 13 128 2 46 15812
2015-11-13 6 164 4 57 11329
2015-11-14 22 205 4 68 15130
2015-11-15 19 147 3 64 14805
2015-11-16 16 194 2 69 11004
2015-11-17 11 161 1 56 14316
2015-11-18 11 88 6 57 14349
2015-11-19 6 81 2 48 13020
2015-11-20 10 117 5 70 11817
2015-11-21 16 128 4 52 13318
2015-11-22 22 151 5 59 15843
2015-11-23 18 188 4 63 19567
2015-11-24 13 148 1 82 14204
2015-11-25 16 159 5 58 15903
2015-11-26 14 143 0 57 13261
2015-11-27 16 156 3 65 14600
2015-11-28 45 171 8 93 17391
2015-11-29 34 189 3 70 18485
2015-11-30 25 154 6 60 18750
Octobre 2015 442 3159 80 87 314333
2015-10-01 3 45 2 46 9634
2015-10-02 9 37 0 38 7092
2015-10-03 23 76 3 41 8646
2015-10-04 16 115 5 64 9949
2015-10-05 14 60 0 61 10920
2015-10-06 17 79 0 45 8097
2015-10-07 7 67 1 43 7210
2015-10-08 9 52 1 81 5742
2015-10-09 11 83 0 46 6882
2015-10-10 6 57 1 73 8025
2015-10-11 9 54 5 44 6959
2015-10-12 9 70 0 50 6639
2015-10-13 11 101 4 49 8517
2015-10-14 17 85 1 47 9545
2015-10-15 11 105 0 46 6826
2015-10-16 16 129 3 48 8665
2015-10-17 18 159 2 66 11188
2015-10-18 6 93 3 42 8665
2015-10-19 27 143 4 51 12246
2015-10-20 26 177 7 54 13244
2015-10-21 18 144 3 64 10273
2015-10-22 22 144 7 53 12271
2015-10-23 12 112 3 52 13054
2015-10-24 24 108 4 87 17095
2015-10-25 25 120 2 50 15347
2015-10-26 14 95 3 61 14360
2015-10-27 10 104 3 42 11480
2015-10-28 10 162 1 53 13820
2015-10-29 14 168 6 61 11355
2015-10-30 10 102 3 44 10896
2015-10-31 18 113 3 57 9691
Septembre 2015 232 1966 84 59 253459
2015-09-01 7 77 2 47 8366
2015-09-02 10 59 0 56 8795
2015-09-03 4 60 2 51 9056
2015-09-04 4 84 1 43 8085
2015-09-05 12 79 1 56 9446
2015-09-06 13 67 3 49 8949
2015-09-07 8 61 8 37 8807
2015-09-08 8 63 3 40 7396
2015-09-09 6 58 2 59 10545
2015-09-10 9 49 4 50 8410
2015-09-11 7 61 4 49 7386
2015-09-12 9 68 4 43 8309
2015-09-13 9 86 3 38 7586
2015-09-14 9 63 1 38 6379
2015-09-15 0 42 2 50 10611
2015-09-16 12 80 2 42 8603
2015-09-17 7 53 4 43 6499
2015-09-18 6 49 2 41 6888
2015-09-19 5 64 4 54 7741
2015-09-20 8 48 6 39 8092
2015-09-21 5 51 3 39 12025
2015-09-22 6 77 4 36 6228
2015-09-23 8 50 3 50 8194
2015-09-24 7 66 2 45 8352
2015-09-25 10 94 2 50 9015
2015-09-26 8 76 2 42 10411
2015-09-27 21 102 7 41 11713
2015-09-28 2 39 1 40 8622
2015-09-29 8 57 1 38 6997
2015-09-30 4 83 1 42 5953
Août 2015 462 3357 113 70 392925
2015-08-01 27 156 6 70 13563
2015-08-02 26 146 2 60 13853
2015-08-03 27 107 4 50 11457
2015-08-04 14 106 4 55 10633
2015-08-05 12 71 3 48 9088
2015-08-06 12 58 4 54 9015
2015-08-07 13 84 2 52 8629
2015-08-08 29 124 9 57 13483
2015-08-09 13 107 6 54 13055
2015-08-10 18 153 6 61 15125
2015-08-11 16 135 5 55 13271
2015-08-12 13 74 8 40 13896
2015-08-13 12 66 6 54 11527
2015-08-14 17 99 3 49 37090
2015-08-15 12 90 3 43 11032
2015-08-16 25 152 3 64 14433
2015-08-17 12 202 5 51 16146
2015-08-18 12 164 3 56 12108
2015-08-19 11 86 1 49 10562
2015-08-20 6 79 1 48 8766
2015-08-21 14 71 5 59 10031
2015-08-22 14 72 2 47 10562
2015-08-23 8 91 2 62 9351
2015-08-24 9 73 0 53 10112
2015-08-25 12 136 2 56 12346
2015-08-26 17 123 5 55 12891
2015-08-27 17 120 4 57 11373
2015-08-28 13 129 2 59 13916
2015-08-29 15 93 2 50 10931
2015-08-30 7 108 3 68 14496
2015-08-31 9 82 2 45 10184
Juillet 2015 523 3516 117 69 338527
2015-07-01 15 74 3 51 11076
2015-07-02 12 64 2 47 7993
2015-07-03 25 101 1 44 10027
2015-07-04 20 114 3 58 11035
2015-07-05 19 174 6 52 12973
2015-07-06 10 112 2 51 10050
2015-07-07 11 105 1 46 9087
2015-07-08 11 101 1 44 8780
2015-07-09 13 122 5 42 8473
2015-07-10 8 78 4 38 7317
2015-07-11 5 78 0 41 7318
2015-07-12 7 70 0 44 7179
2015-07-13 8 61 5 41 8654
2015-07-14 9 89 1 38 7418
2015-07-15 6 82 2 45 7962
2015-07-16 14 116 6 51 9211
2015-07-17 9 92 5 45 8450
2015-07-18 32 147 2 47 11530
2015-07-19 19 78 6 46 10703
2015-07-20 27 135 4 51 15733
2015-07-21 33 152 7 52 13571
2015-07-22 22 176 4 46 12170
2015-07-23 16 139 4 60 10212
2015-07-24 22 146 5 55 12923
2015-07-25 25 153 10 68 15864
2015-07-26 33 151 6 61 14291
2015-07-27 16 120 6 53 12774
2015-07-28 15 142 7 65 16092
2015-07-29 21 121 1 69 14563
2015-07-30 17 120 7 59 12630
2015-07-31 23 103 1 52 12468
Juin 2015 405 2714 99 61 271335
2015-06-01 13 78 7 49 9094
2015-06-02 9 61 1 36 6857
2015-06-03 7 46 1 43 6984
2015-06-04 12 62 5 49 6197
2015-06-05 13 100 2 42 8493
2015-06-06 12 60 0 44 9036
2015-06-07 10 64 2 45 8897
2015-06-08 6 68 3 38 8050
2015-06-09 6 36 2 61 6780
2015-06-10 17 75 1 49 8423
2015-06-11 8 47 1 40 6542
2015-06-12 11 75 1 44 9543
2015-06-13 9 53 2 36 7355
2015-06-14 15 82 4 40 8074
2015-06-15 11 86 5 42 8510
2015-06-16 7 78 4 41 7977
2015-06-17 11 91 5 45 9431
2015-06-18 12 106 3 46 8720
2015-06-19 10 61 1 40 7509
2015-06-20 19 81 3 51 9226
2015-06-21 8 111 11 41 11065
2015-06-22 21 96 6 40 9919
2015-06-23 25 126 5 44 10222
2015-06-24 22 212 5 52 12007
2015-06-25 18 133 3 46 12013
2015-06-26 7 73 2 38 7580
2015-06-27 14 120 0 49 10129
2015-06-28 29 162 3 56 11262
2015-06-29 17 150 7 47 14252
2015-06-30 26 121 4 39 11188
Mai 2015 455 2697 218 52 294222
2015-05-01 32 128 6 46 10665
2015-05-02 24 121 12 37 9863
2015-05-03 24 134 8 45 10498
2015-05-04 12 100 11 52 9390
2015-05-05 18 114 12 40 8555
2015-05-06 10 92 6 43 8332
2015-05-07 13 85 6 46 27147
2015-05-08 20 106 10 48 9148
2015-05-09 23 129 8 52 11247
2015-05-10 28 121 2 46 10961
2015-05-11 11 85 2 37 7702
2015-05-12 10 45 5 45 7675
2015-05-13 9 75 5 34 6969
2015-05-14 11 71 8 40 8531
2015-05-15 24 113 15 39 10421
2015-05-16 11 60 5 51 9076
2015-05-17 22 84 8 38 9855
2015-05-18 15 73 5 43 9876
2015-05-19 7 59 9 41 7335
2015-05-20 12 57 8 43 8858
2015-05-21 9 90 6 51 9095
2015-05-22 7 61 10 37 8429
2015-05-23 7 75 4 48 8905
2015-05-24 12 86 7 43 9058
2015-05-25 24 110 4 45 11246
2015-05-26 8 60 6 40 8755
2015-05-27 12 67 13 38 7209
2015-05-28 15 58 3 37 7609
2015-05-29 11 87 6 35 6432
2015-05-30 8 100 5 38 7865
2015-05-31 6 51 3 36 7515
Avril 2015 444 2634 201 68 265358
2015-04-01 14 92 11 68 8949
2015-04-02 11 65 5 46 6271
2015-04-03 11 72 7 53 8230
2015-04-04 15 74 3 46 8824
2015-04-05 21 120 3 39 9074
2015-04-06 7 61 8 60 7774
2015-04-07 12 112 6 60 8364
2015-04-08 11 72 9 41 7426
2015-04-09 9 62 5 56 8241
2015-04-10 9 58 5 47 6826
2015-04-11 10 36 5 33 5643
2015-04-12 24 91 9 48 8604
2015-04-13 12 69 3 56 6389
2015-04-14 22 88 9 43 7573
2015-04-15 13 81 8 52 9262
2015-04-16 13 65 6 40 7229
2015-04-17 15 95 3 41 8427
2015-04-18 11 57 10 37 7795
2015-04-19 21 88 6 36 7552
2015-04-20 19 109 4 37 7676
2015-04-21 19 100 8 45 9096
2015-04-22 23 97 8 52 11651
2015-04-23 16 74 12 51 10561
2015-04-24 15 88 4 39 10360
2015-04-25 27 157 8 47 14788
2015-04-26 16 147 6 50 17441
2015-04-27 8 100 10 37 10129
2015-04-28 8 105 6 38 8842
2015-04-29 17 101 5 33 8417
2015-04-30 15 98 9 39 7944
Mars 2015 485 3058 208 141 276535
2015-03-01 15 122 10 52 8351
2015-03-02 12 71 11 54 6349
2015-03-03 8 54 6 38 5950
2015-03-04 21 98 6 44 6132
2015-03-05 13 109 8 75 8008
2015-03-06 10 81 6 141 8292
2015-03-07 31 148 8 67 8525
2015-03-08 22 152 8 53 8485
2015-03-09 8 40 6 57 6136
2015-03-10 12 104 1 42 6975
2015-03-11 10 98 2 40 6703
2015-03-12 10 54 10 48 6247
2015-03-13 6 56 1 38 5796
2015-03-14 14 102 4 52 6494
2015-03-15 57 101 7 45 7101
2015-03-16 4 41 4 39 5423
2015-03-17 6 54 8 69 6737
2015-03-18 6 59 4 44 8690
2015-03-19 44 92 12 58 16347
2015-03-20 9 66 17 45 8389
2015-03-21 25 134 10 44 7632
2015-03-22 28 128 8 67 11622
2015-03-23 6 90 1 40 6207
2015-03-24 12 122 8 52 7533
2015-03-25 16 156 8 43 9317
2015-03-26 11 139 6 40 8539
2015-03-27 13 82 3 42 8603
2015-03-28 17 181 7 40 10745
2015-03-29 13 116 5 42 36768
2015-03-30 16 99 9 58 9910
2015-03-31 10 109 4 58 8529
Février 2015 565 3504 185 276 261228
2015-02-01 19 143 7 54 11277
2015-02-02 12 100 5 58 9049
2015-02-03 17 95 4 51 11286
2015-02-04 18 88 4 74 10387
2015-02-05 16 83 4 53 8607
2015-02-06 10 51 4 47 6146
2015-02-07 24 114 5 38 9311
2015-02-08 23 144 6 68 9747
2015-02-09 24 195 6 54 10784
2015-02-10 29 162 7 48 11354
2015-02-11 27 187 4 66 10336
2015-02-12 18 141 1 39 7980
2015-02-13 33 144 2 46 8450
2015-02-14 28 165 13 47 13251
2015-02-15 18 112 8 62 10565
2015-02-16 41 151 18 43 10610
2015-02-17 23 92 3 46 8353
2015-02-18 18 147 5 56 8330
2015-02-19 8 107 4 47 8527
2015-02-20 37 174 9 49 10486
2015-02-21 10 109 10 68 9392
2015-02-22 17 90 10 47 7478
2015-02-23 25 147 4 76 9298
2015-02-24 16 154 2 66 8850
2015-02-25 15 113 18 57 9224
2015-02-26 13 127 13 44 7512
2015-02-27 13 85 4 276 7836
2015-02-28 13 84 5 41 6802
Janvier 2015 679 3827 166 82 378973
2015-01-01 21 125 4 52 11601
2015-01-02 29 217 4 79 11693
2015-01-03 24 138 10 63 10632
2015-01-04 40 155 6 73 10004
2015-01-05 25 161 8 59 10686
2015-01-06 15 105 3 58 9145
2015-01-07 16 101 7 63 8474
2015-01-08 17 115 5 54 8922
2015-01-09 31 104 6 59 8919
2015-01-10 18 100 0 79 12085
2015-01-11 24 107 5 57 8418
2015-01-12 20 110 5 54 7462
2015-01-13 28 173 6 48 8757
2015-01-14 17 109 7 56 10011
2015-01-15 6 84 7 51 8214
2015-01-16 8 65 1 56 87651
2015-01-17 7 78 4 60 11449
2015-01-18 26 121 6 54 10826
2015-01-19 18 113 3 55 9902
2015-01-20 15 174 3 67 9197
2015-01-21 21 184 11 54 9740
2015-01-22 7 110 4 59 9595
2015-01-23 17 105 6 58 8560
2015-01-24 33 163 4 62 10811
2015-01-25 17 136 6 82 12419
2015-01-26 27 130 7 53 10229
2015-01-27 14 91 4 55 8431
2015-01-28 91 175 7 57 9619
2015-01-29 17 97 5 52 9313
2015-01-30 13 90 6 48 7721
2015-01-31 17 91 6 49 8487
* 2014 6379 31231 1700 79 2390551
Décembre 2014 663 3813 135 79 288195
2014-12-01 30 65 6 43 7737
2014-12-02 12 76 2 52 5678
2014-12-03 15 91 4 60 7347
2014-12-04 14 90 5 45 7128
2014-12-05 10 82 2 60 7560
2014-12-06 19 120 2 49 8911
2014-12-07 17 115 8 61 9114
2014-12-08 23 91 6 47 7142
2014-12-09 12 80 1 51 8536
2014-12-10 16 80 4 49 8323
2014-12-11 12 96 3 48 7295
2014-12-12 22 90 1 50 6456
2014-12-13 31 185 3 60 11793
2014-12-14 19 133 2 49 9905
2014-12-15 19 92 5 54 8558
2014-12-16 10 72 1 45 7233
2014-12-17 21 89 11 79 8224
2014-12-18 20 113 3 57 9569
2014-12-19 15 125 3 72 9353
2014-12-20 30 186 2 55 11389
2014-12-21 33 133 6 68 10772
2014-12-22 35 162 6 78 13487
2014-12-23 25 157 1 67 11501
2014-12-24 25 179 3 61 10380
2014-12-25 21 131 7 65 9894
2014-12-26 18 148 6 59 10971
2014-12-27 30 175 8 78 11911
2014-12-28 26 157 7 69 9320
2014-12-29 23 197 7 68 10553
2014-12-30 42 174 6 71 11593
2014-12-31 18 129 4 57 10562
Novembre 2014 634 2497 150 62 239772
2014-11-01 16 67 7 58 7054
2014-11-02 34 124 5 59 9292
2014-11-03 17 92 5 31 6354
2014-11-04 17 103 1 51 7511
2014-11-05 11 86 4 50 7642
2014-11-06 12 66 4 56 7594
2014-11-07 22 79 3 62 10581
2014-11-08 26 119 8 52 10351
2014-11-09 29 73 8 48 12222
2014-11-10 15 72 5 49 8299
2014-11-11 26 86 7 56 8178
2014-11-12 23 94 4 57 8111
2014-11-13 28 78 2 57 8150
2014-11-14 16 90 14 56 7548
2014-11-15 38 97 8 55 8808
2014-11-16 21 79 9 48 7610
2014-11-17 9 40 1 57 5280
2014-11-18 15 48 1 53 6850
2014-11-19 21 69 3 58 7297
2014-11-20 20 81 7 62 6995
2014-11-21 18 105 3 60 7464
2014-11-22 28 101 5 50 8499
2014-11-23 35 129 7 59 9997
2014-11-24 19 84 3 61 7930
2014-11-25 22 71 6 58 7444
2014-11-26 24 52 3 53 6953
2014-11-27 14 96 1 50 7458
2014-11-28 15 54 1 50 5223
2014-11-29 17 95 9 49 8233
2014-11-30 26 67 6 61 8844
Octobre 2014 763 3148 211 70 386812
2014-10-01 19 43 7 64 7095
2014-10-02 22 61 6 56 6617
2014-10-03 14 84 5 67 11004
2014-10-04 19 61 14 51 10136
2014-10-05 34 98 19 66 11174
2014-10-06 30 133 7 59 9105
2014-10-07 14 64 4 43 5991
2014-10-08 15 60 5 70 6542
2014-10-09 15 63 2 38 5940
2014-10-10 21 76 1 47 5896
2014-10-11 18 110 7 54 117884
2014-10-12 36 108 6 60 18371
2014-10-13 24 66 5 53 6872
2014-10-14 31 106 3 68 7564
2014-10-15 36 124 5 62 9631
2014-10-16 23 109 1 59 8162
2014-10-17 19 115 1 49 6378
2014-10-18 25 98 7 41 8025
2014-10-19 23 116 7 44 9429
2014-10-20 29 106 7 39 9191
2014-10-21 45 175 10 53 11710
2014-10-22 38 175 9 64 11737
2014-10-23 32 118 13 50 11833
2014-10-24 19 130 7 55 11810
2014-10-25 21 100 8 58 9660
2014-10-26 23 109 6 56 8962
2014-10-27 24 98 6 52 9230
2014-10-28 18 70 6 34 6359
2014-10-29 29 136 10 44 8465
2014-10-30 30 136 11 57 8901
2014-10-31 17 100 6 40 7138
Septembre 2014 760 3099 204 77 255364
Août 2014 605 2883 183 78 259609
2014-08-01 7 28 2 42 5233
2014-08-02 8 63 0 41 5125
2014-08-03 15 115 2 49 7180
2014-08-04 10 56 1 38 5658
2014-08-05 7 51 3 44 5479
2014-08-06 5 35 1 32 5822
2014-08-07 7 32 2 30 4296
2014-08-08 35 105 0 49 8702
2014-08-09 15 76 5 52 7439
2014-08-10 14 74 4 44 7510
2014-08-11 14 46 8 56 7372
2014-08-12 10 66 4 47 7887
2014-08-13 6 42 5 33 6607
2014-08-14 15 68 5 39 7837
2014-08-15 15 56 1 49 8357
2014-08-16 9 60 5 48 7227
2014-08-17 19 90 5 43 7059
2014-08-18 23 120 8 52 8355
2014-08-19 23 124 7 69 8795
2014-08-20 14 96 8 60 11111
2014-08-21 47 171 9 68 10934
2014-08-22 29 118 6 52 11381
2014-08-23 46 201 11 58 12121
2014-08-24 22 149 4 53 11615
2014-08-25 29 125 6 62 12385
2014-08-26 21 110 13 60 10450
2014-08-27 33 131 7 78 11653
2014-08-28 22 100 6 56 8272
2014-08-29 30 112 12 58 9882
2014-08-30 24 96 8 56 8478
2014-08-31 31 167 25 61 9387
Juillet 2014 856 3966 187 74 283409
2014-07-01 21 121 2 42 6900
2014-07-02 32 106 4 38 6143
2014-07-03 13 132 5 55 6613
2014-07-04 21 149 4 74 8354
2014-07-05 13 83 5 43 6772
2014-07-06 17 92 3 42 6926
2014-07-07 26 105 6 47 8055
2014-07-08 55 192 8 61 12066
2014-07-09 49 253 13 44 11240
2014-07-10 54 200 13 68 13173
2014-07-11 30 137 11 55 9530
2014-07-12 31 164 8 70 10765
2014-07-13 21 133 15 54 10021
2014-07-14 28 151 5 56 10141
2014-07-15 33 95 3 51 8525
2014-07-16 20 122 7 59 10242
2014-07-17 35 171 4 43 11148
2014-07-18 22 131 10 59 9729
2014-07-19 44 107 6 41 10389
2014-07-20 58 215 9 58 14628
2014-07-21 33 134 8 61 9419
2014-07-22 25 123 7 53 9118
2014-07-23 37 159 10 52 10222
2014-07-24 28 129 5 70 12564
2014-07-25 20 117 0 49 8732
2014-07-26 23 94 5 56 9201
2014-07-27 15 65 3 46 7606
2014-07-28 19 81 2 59 8961
2014-07-29 19 74 0 41 6886
2014-07-30 12 114 6 68 8712
2014-07-31 2 17 0 29 628
Juin 2014 634 3925 159 69 193004
Mai 2014 649 4140 222 73 189377
Avril 2014 305 1608 115 60 98906
2014-04-01 1 30 1 39 1905
2014-04-02 17 57 2 29 3294
2014-04-03 16 42 2 35 4150
2014-04-04 10 32 3 24 2696
2014-04-05 15 29 3 27 3436
2014-04-06 17 71 3 37 3242
2014-04-07 10 30 0 38 1721
2014-04-08 6 39 0 46 2492
2014-04-09 2 49 4 34 2424
2014-04-10 8 28 1 24 2298
2014-04-11 9 91 2 32 4237
2014-04-12 12 71 4 39 3963
2014-04-13 8 81 1 33 3603
2014-04-14 3 18 3 25 1697
2014-04-15 1 9 0 33 896
2014-04-16 7 41 7 44 3495
2014-04-17 15 48 2 46 3105
2014-04-18 13 41 2 28 2936
2014-04-19 12 56 9 50 3169
2014-04-20 10 38 3 31 3038
2014-04-21 14 55 4 31 4009
2014-04-22 5 23 2 30 2713
2014-04-23 6 28 8 28 3412
2014-04-24 7 48 9 32 3229
2014-04-25 12 67 17 40 3956
2014-04-26 9 62 4 50 3194
2014-04-27 14 79 3 42 4574
2014-04-28 17 97 3 36 5020
2014-04-29 16 128 10 45 5637
2014-04-30 13 120 3 60 5365
Mars 2014 176 930 40 55 68676
Février 2014 217 832 56 53 74165
Janvier 2014 117 390 38 37 53262
2014-01-01 8 37 4 30 1531
2014-01-02 4 21 0 26 1148
2014-01-03 1 21 3 26 1299
2014-01-04 1 8 0 13 712
2014-01-05 1 14 1 13 1111
2014-01-06 0 2 0 8 240
2014-01-07 4 11 2 26 2481
2014-01-08 2 14 0 19 2129
2014-01-09 0 4 3 13 1957
2014-01-10 1 3 3 19 1602
2014-01-11 4 27 1 25 2807
2014-01-12 4 14 1 33 3286
2014-01-13 0 11 0 20 2135
2014-01-14 0 9 0 18 3931
2014-01-15 2 7 0 23 1352
2014-01-16 9 13 3 21 1694
2014-01-17 5 12 0 15 1786
2014-01-18 2 8 0 18 1413
2014-01-19 0 5 1 19 1331
2014-01-20 3 4 1 22 1431
2014-01-21 3 4 1 22 1348
2014-01-22 9 17 1 17 1694
2014-01-23 2 7 0 21 1591
2014-01-24 5 21 2 26 2048
2014-01-25 3 9 0 22 1755
2014-01-26 6 12 4 24 1846
2014-01-27 14 23 2 21 2084
2014-01-28 9 13 2 15 1579
2014-01-29 4 12 0 18 967
2014-01-30 5 12 1 37 1314
2014-01-31 6 15 2 20 1660
* 2013 383 1943 344 30 297768
Décembre 2013 46 191 42 29 15178
2013-12-01 0 3 0 4 412
2013-12-02 0 2 0 6 450
2013-12-03 0 2 0 4 345
2013-12-04 0 2 1 4 203
2013-12-05 0 0 0 5 136
2013-12-06 0 3 0 4 186
2013-12-07 0 1 0 9 430
2013-12-08 1 1 3 5 190
2013-12-09 0 2 1 5 166
2013-12-10 0 1 1 5 327
2013-12-11 0 0 0 4 82
2013-12-12 0 0 0 5 249
2013-12-13 0 0 0 6 150
2013-12-14 0 2 0 6 305
2013-12-15 0 1 1 9 298
2013-12-16 0 0 1 7 196
2013-12-17 0 0 0 7 283
2013-12-18 0 0 0 6 180
2013-12-19 1 2 3 9 524
2013-12-20 0 0 0 8 401
2013-12-21 0 0 0 6 206
2013-12-22 4 11 3 18 823
2013-12-23 4 16 7 11 763
2013-12-24 2 8 3 14 834
2013-12-25 5 7 1 13 827
2013-12-26 1 10 6 12 838
2013-12-27 3 9 0 19 754
2013-12-28 11 43 3 25 1561
2013-12-29 5 18 4 25 839
2013-12-30 5 28 1 29 1252
2013-12-31 4 19 3 18 968
Novembre 2013 41 188 12 18 11547
Octobre 2013 19 71 17 12 6334
2013-10-21 0 2 2 3 414
2013-10-22 0 0 4 3 446
2013-10-23 0 0 0 4 96
2013-10-24 1 1 2 4 254
2013-10-25 4 4 1 6 412
2013-10-26 3 10 4 12 692
2013-10-27 4 13 0 7 693
2013-10-28 0 13 0 7 601
2013-10-29 3 11 1 7 1004
2013-10-30 3 9 2 12 920
2013-10-31 1 8 1 7 802
Septembre 2013 20 199 14 21 7105
2013-09-01 6 101 0 11 1354
2013-09-02 1 20 2 11 941
2013-09-03 6 44 6 11 1245
2013-09-04 2 11 0 6 564
2013-09-05 0 2 1 11 488
2013-09-06 3 6 2 8 1310
2013-09-07 2 13 3 21 1053
2013-09-08 0 2 0 5 150
Août 2013 83 329 48 23 25411
2013-08-01 2 15 1 10 1131
2013-08-02 1 12 1 6 701
2013-08-03 2 4 0 6 242
2013-08-04 1 7 0 10 663
2013-08-05 1 3 0 7 414
2013-08-06 0 0 1 6 608
2013-08-07 3 7 0 8 453
2013-08-08 2 8 3 6 564
2013-08-09 2 7 1 6 383
2013-08-10 0 0 2 6 476
2013-08-11 1 1 1 7 1133
2013-08-12 5 5 5 7 621
2013-08-13 0 0 0 5 433
2013-08-14 1 2 3 7 559
2013-08-15 2 11 3 8 1050
2013-08-16 4 6 2 10 744
2013-08-19 4 19 3 9 912
2013-08-20 0 7 2 8 1498
2013-08-21 6 9 3 23 1177
2013-08-22 8 37 0 20 1787
2013-08-23 5 12 3 19 912
2013-08-24 5 25 2 15 1068
2013-08-25 1 7 0 8 631
2013-08-26 2 2 4 18 792
2013-08-27 8 10 0 23 1291
2013-08-28 4 38 0 22 1601
2013-08-29 3 23 1 16 1219
2013-08-30 6 31 1 17 1385
2013-08-31 4 21 6 16 963
Juillet 2013 62 471 16 25 18115
Juin 2013 27 65 14 30 6545
Mai 2013 0 0 0 26 988
2013-05-01 0 0 0 16 359
2013-05-02 0 0 0 2 112
2013-05-03 0 0 0 26 311
2013-05-04 0 0 0 3 66
2013-05-13 0 0 0 1 140
Avril 2013 0 22 0 29 13097
2013-04-01 0 5 0 17 671
2013-04-02 0 0 0 14 479
2013-04-03 0 1 0 8 529
2013-04-04 0 5 0 22 591
2013-04-05 0 5 0 15 621
2013-04-06 0 0 0 25 398
2013-04-07 0 2 0 10 391
2013-04-08 0 0 0 19 364
2013-04-09 0 0 0 11 583
2013-04-10 0 0 0 16 301
2013-04-11 0 0 0 15 424
2013-04-12 0 0 0 9 567
2013-04-13 0 0 0 8 582
2013-04-14 0 0 0 22 355
2013-04-15 0 0 0 27 711
2013-04-16 0 2 0 29 350
2013-04-17 0 1 0 9 287
2013-04-18 0 0 0 6 189
2013-04-19 0 0 0 22 272
2013-04-20 0 0 0 5 281
2013-04-21 0 1 0 5 388
2013-04-22 0 0 0 17 550
2013-04-23 0 0 0 10 417
2013-04-24 0 0 0 6 195
2013-04-25 0 0 0 17 379
2013-04-26 0 0 0 11 258
2013-04-27 0 0 0 27 507
2013-04-28 0 0 0 18 254
2013-04-29 0 0 0 4 289
2013-04-30 0 0 0 7 914
Mars 2013 72 337 83 30 85406
Février 2013 9 56 79 27 14321
2013-02-01 0 0 1 4 142
2013-02-02 0 6 1 8 285
2013-02-03 0 1 5 9 247
2013-02-04 0 0 0 3 83
2013-02-05 0 0 0 5 55
2013-02-06 0 0 2 4 151
2013-02-07 0 0 2 7 162
2013-02-08 1 1 2 2 426
2013-02-09 0 0 1 15 219
2013-02-12 0 0 0 10 356
2013-02-13 0 1 9 8 610
2013-02-14 0 1 4 7 413
2013-02-15 1 9 5 18 1247
2013-02-16 3 12 8 13 1094
2013-02-17 0 3 4 16 915
2013-02-18 0 0 5 8 582
2013-02-19 0 0 1 6 258
2013-02-20 0 0 2 7 301
2013-02-21 0 1 7 9 699
2013-02-22 0 2 1 17 689
2013-02-23 1 1 10 27 1329
2013-02-24 1 5 2 14 1061
2013-02-25 0 0 1 7 844
2013-02-26 1 4 2 7 1228
2013-02-27 1 5 1 8 454
2013-02-28 0 4 3 10 471
Janvier 2013 4 14 19 15 93721
2013-01-17 0 0 2 5 215
2013-01-18 0 0 4 15 535
2013-01-19 0 1 0 8 306
2013-01-20 1 3 1 10 1273
2013-01-21 0 0 1 5 89000
2013-01-22 0 0 2 5 144
2013-01-23 0 0 0 9 150
2013-01-24 0 0 1 4 103
2013-01-25 0 0 1 6 65
2013-01-26 0 0 1 5 272
2013-01-27 0 0 1 6 254
2013-01-28 0 0 0 5 150
2013-01-29 1 5 1 7 242
2013-01-30 1 3 3 8 567
2013-01-31 1 2 1 7 445